"Pseudo-MPEC" for P12mo8c

Created 2026 Mar 28 17:35:30 UT using Find_Orb

Click here for an explanation of pseudo-MPECs

 
 Astrometry: 
     P12mo8c*0C2026 03 08.59714712 40 58.011+26 50 07.02   ~38HZ 18.26iXNEOCPF51
     P12mo8c 0C2026 03 08.60556112 40 58.026+26 50 06.93   ~38HZ 18.25iXNEOCPF51
     P12mo8c 0C2026 03 08.61398012 40 58.028+26 50 06.85   ~38HZ 18.25iXNEOCPF51
     P12mo8c 0C2026 03 08.62238312 40 58.041+26 50 06.69   ~38HZ 18.21iXNEOCPF51

Station data:
(F51) Pan-STARRS 1, Haleakala  (N20.707234 W156.255910)  US/Hawaii.
   Observers J. Herman, T. Lowe, P. Minguez, A. Schultz, I. Smith. Measurers
   K. Chambers, T. de Boer, J. Fairlamb, H. Gao, M. Huber, C.-C. Lin, E.
   Magnier, Y. Ramanjooloo, R. Wainscoat, R. Weryk. 1.8-m Ritchey-Chrétien +
   CCD.

Orbital elements:  P12mo8c
   Perihelion 2026 Jan 29.000584 +/- 44.6 TT =  0:00:50.4 (JD 2461069.500584)
Epoch 2026 Mar  9.0 TT = JDT 2461108.5   Earth MOID: 0.3213   Ma: 0.0952
M   8.702496727 +/- 16              (J2000 ecliptic)             AutoNEOCP
n   0.223144280 +/- 0.233           Peri.   40.539465 +/- 100
a   2.692023683 +/- 1.88            Node    99.012317 +/- 45
e   0.52082565 +/- 0.252            Incl.    8.595462 +/- 4.8
P   4.41691                H 18.83  G  0.15   U 11.8  SR
q 1.289948677 +/- 0.368    Q 4.094098689 +/- 71.9
From 4 observations 2026 Mar. 8 (36.3 min); mean residual 0".03
Residuals in arcseconds: 
260308 F51  .03-  .00     260308 F51  .02-  .02+    
260308 F51  .07+  .01-    260308 F51  .01-  .01-    

Ephemerides (geocentric):
Date (UTC) HH   RA             Dec           delta  r     elong  mag " sig PA
---- --------  ------------   ------------  ------ ------ -----  --- --------
2026 03 28 18  12 37 59.743   +25 07 42.73  .47656 1.4357 151.7 19.0  61d  97
2026 03 28 19  12 37 59.060   +25 07 16.86  .47677 1.4359 151.7 19.0  61d  97
2026 03 28 20  12 37 58.378   +25 06 50.95  .47697 1.4361 151.7 19.0  61d  97
2026 03 28 21  12 37 57.696   +25 06 24.98  .47718 1.4363 151.7 19.0  61d  97
2026 03 28 22  12 37 57.014   +25 05 58.97  .47738 1.4365 151.7 19.0  61d  97
2026 03 28 23  12 37 56.333   +25 05 32.91  .47759 1.4367 151.7 19.0  61d  97
2026 03 29 00  12 37 55.652   +25 05 06.80  .47780 1.4368 151.7 19.0  61d  97
2026 03 29 01  12 37 54.971   +25 04 40.64  .47800 1.4370 151.7 19.0  61d  97
2026 03 29 02  12 37 54.290   +25 04 14.44  .47821 1.4372 151.7 19.0  61d  97
2026 03 29 03  12 37 53.610   +25 03 48.19  .47842 1.4374 151.7 19.0  61d  97
2026 03 29 04  12 37 52.930   +25 03 21.89  .47862 1.4376 151.7 19.0  61d  97
2026 03 29 05  12 37 52.251   +25 02 55.55  .47883 1.4378 151.7 19.0  61d  97
2026 03 29 06  12 37 51.572   +25 02 29.16  .47904 1.4380 151.6 19.0  61d  97
2026 03 29 07  12 37 50.893   +25 02 02.72  .47925 1.4382 151.6 19.0  62d  97
2026 03 29 08  12 37 50.215   +25 01 36.23  .47946 1.4384 151.6 19.0  62d  97
2026 03 29 09  12 37 49.537   +25 01 09.70  .47966 1.4386 151.6 19.0  62d  97
2026 03 29 10  12 37 48.859   +25 00 43.11  .47987 1.4388 151.6 19.0  62d  97
2026 03 29 11  12 37 48.182   +25 00 16.49  .48008 1.4389 151.6 19.0  62d  97
2026 03 29 12  12 37 47.505   +24 59 49.81  .48029 1.4391 151.6 19.0  62d  97
2026 03 29 13  12 37 46.829   +24 59 23.09  .48050 1.4393 151.6 19.0  62d  97
2026 03 29 14  12 37 46.153   +24 58 56.32  .48071 1.4395 151.6 19.0  62d  97
2026 03 29 15  12 37 45.477   +24 58 29.51  .48092 1.4397 151.6 19.0  62d  97
2026 03 29 16  12 37 44.802   +24 58 02.65  .48113 1.4399 151.6 19.0  62d  97
2026 03 29 17  12 37 44.127   +24 57 35.74  .48134 1.4401 151.6 19.0  62d  97
2026 03 29 18  12 37 43.453   +24 57 08.78  .48155 1.4403 151.6 19.0  62d  97
2026 03 29 19  12 37 42.779   +24 56 41.78  .48176 1.4405 151.6 19.0  62d  97
2026 03 29 20  12 37 42.106   +24 56 14.74  .48197 1.4407 151.6 19.0  62d  97
2026 03 29 21  12 37 41.433   +24 55 47.64  .48218 1.4409 151.5 19.0  62d  97
2026 03 29 22  12 37 40.761   +24 55 20.50  .48239 1.4411 151.5 19.0  62d  97
2026 03 29 23  12 37 40.089   +24 54 53.32  .48261 1.4412 151.5 19.0  62d  97
2026 03 30 00  12 37 39.418   +24 54 26.09  .48282 1.4414 151.5 19.0  62d  97
2026 03 30 01  12 37 38.747   +24 53 58.81  .48303 1.4416 151.5 19.0  62d  97
2026 03 30 02  12 37 38.076   +24 53 31.48  .48324 1.4418 151.5 19.0  62d  97
2026 03 30 03  12 37 37.406   +24 53 04.11  .48345 1.4420 151.5 19.0  62d  97
2026 03 30 04  12 37 36.737   +24 52 36.70  .48367 1.4422 151.5 19.0  62d  97
2026 03 30 05  12 37 36.068   +24 52 09.24  .48388 1.4424 151.5 19.0  62d  97
2026 03 30 06  12 37 35.400   +24 51 41.73  .48409 1.4426 151.5 19.0  62d  97
2026 03 30 07  12 37 34.732   +24 51 14.17  .48431 1.4428 151.5 19.0  62d  97
2026 03 30 08  12 37 34.065   +24 50 46.58  .48452 1.4430 151.5 19.0  62d  97
2026 03 30 09  12 37 33.398   +24 50 18.93  .48473 1.4432 151.5 19.0  62d  97
2026 03 30 10  12 37 32.732   +24 49 51.24  .48495 1.4434 151.5 19.0  62d  97
2026 03 30 11  12 37 32.066   +24 49 23.51  .48516 1.4436 151.4 19.0  62d  97
2026 03 30 12  12 37 31.401   +24 48 55.73  .48538 1.4437 151.4 19.0  62d  97
2026 03 30 13  12 37 30.737   +24 48 27.90  .48559 1.4439 151.4 19.0  62d  97
2026 03 30 14  12 37 30.073   +24 48 00.03  .48581 1.4441 151.4 19.0  62d 101
2026 03 30 15  12 37 29.410   +24 47 32.11  .48602 1.4443 151.4 19.0  62d 101
2026 03 30 16  12 37 28.747   +24 47 04.15  .48624 1.4445 151.4 19.0  62d 101
2026 03 30 17  12 37 28.085   +24 46 36.14  .48645 1.4447 151.4 19.0  62d 101